TimeCEST,TemperatureF,Dew PointF,Humidity,Sea Level PressureIn,VisibilityMPH,Wind Direction,Wind SpeedMPH,Gust SpeedMPH,PrecipitationIn,Events,Conditions,WindDirDegrees,DateUTC
12:00 AM,57.2,57.2,100,29.68,6.2,North,10.4,-,N/A,Rain,Light Rain Showers,360,2013-05-17 22:00:00
12:30 AM,57.2,55.4,94,29.74,6.2,SSE,9.2,-,N/A,,Scattered Clouds,150,2013-05-17 22:30:00
1:00 AM,57.2,55.4,94,29.77,6.2,SSW,8.1,-,N/A,,Scattered Clouds,200,2013-05-17 23:00:00
1:30 AM,57.2,57.2,100,29.80,6.2,South,6.9,-,N/A,,Mostly Cloudy,190,2013-05-17 23:30:00
2:00 AM,57.2,57.2,100,29.80,6.2,South,8.1,-,N/A,,Mostly Cloudy,180,2013-05-18 00:00:00
2:30 AM,55.4,55.4,100,29.77,6.2,SSE,9.2,-,N/A,,Mostly Cloudy,150,2013-05-18 00:30:00
3:00 AM,55.4,55.4,100,29.80,6.2,SSE,9.2,-,N/A,,Scattered Clouds,150,2013-05-18 01:00:00
3:30 AM,55.4,55.4,100,29.80,6.2,SSE,8.1,-,N/A,,Mostly Cloudy,150,2013-05-18 01:30:00
4:00 AM,53.6,53.6,100,29.80,6.2,SSE,6.9,-,N/A,,Partly Cloudy,150,2013-05-18 02:00:00
4:30 AM,53.6,53.6,100,29.80,-9999.0,SSE,5.8,-,N/A,,Clear,160,2013-05-18 02:30:00
5:00 AM,53.6,53.6,100,29.80,-9999.0,SSE,4.6,-,N/A,,Clear,150,2013-05-18 03:00:00
5:30 AM,51.8,50.0,94,29.83,-9999.0,SE,5.8,-,N/A,,Clear,130,2013-05-18 03:30:00
6:00 AM,53.6,53.6,100,29.83,-9999.0,SE,6.9,-,N/A,,Clear,140,2013-05-18 04:00:00
6:30 AM,55.4,53.6,94,29.83,-9999.0,SSE,5.8,-,N/A,,Clear,150,2013-05-18 04:30:00
7:00 AM,57.2,53.6,88,29.86,-9999.0,South,6.9,-,N/A,,Clear,170,2013-05-18 05:00:00
7:30 AM,57.2,53.6,88,29.86,-9999.0,South,9.2,-,N/A,,Clear,170,2013-05-18 05:30:00
8:00 AM,59.0,53.6,82,29.86,-9999.0,SSW,10.4,-,N/A,,Clear,210,2013-05-18 06:00:00
8:30 AM,60.8,51.8,72,29.89,-9999.0,SW,12.7,25.3,N/A,,Clear,220,2013-05-18 06:30:00
9:00 AM,62.6,51.8,68,29.89,6.2,SW,15.0,-,N/A,,Partly Cloudy,230,2013-05-18 07:00:00
9:30 AM,64.4,51.8,64,29.89,6.2,SW,16.1,-,N/A,,Partly Cloudy,230,2013-05-18 07:30:00
10:00 AM,64.4,50.0,59,29.89,6.2,WSW,16.1,-,N/A,,Partly Cloudy,240,2013-05-18 08:00:00
10:30 AM,68.0,51.8,56,29.92,6.2,SW,12.7,-,N/A,,Partly Cloudy,230,2013-05-18 08:30:00
11:00 AM,66.2,51.8,60,29.92,6.2,SW,16.1,-,N/A,,Partly Cloudy,220,2013-05-18 09:00:00
11:30 AM,68.0,51.8,56,29.92,6.2,SSW,15.0,-,N/A,,Partly Cloudy,210,2013-05-18 09:30:00
12:00 PM,66.2,51.8,60,29.92,6.2,SSW,12.7,-,N/A,,Partly Cloudy,210,2013-05-18 10:00:00
12:30 PM,69.8,53.6,56,29.92,6.2,SSW,13.8,-,N/A,,Partly Cloudy,210,2013-05-18 10:30:00
1:00 PM,69.8,51.8,53,29.95,6.2,SW,11.5,-,N/A,,Partly Cloudy,220,2013-05-18 11:00:00
1:30 PM,69.8,53.6,56,29.95,6.2,SSW,12.7,-,N/A,,Partly Cloudy,210,2013-05-18 11:30:00
2:00 PM,71.6,53.6,53,29.95,6.2,SW,13.8,-,N/A,,Partly Cloudy,220,2013-05-18 12:00:00
2:30 PM,69.8,50.0,49,29.95,6.2,SW,13.8,-,N/A,,Partly Cloudy,220,2013-05-18 12:30:00
3:00 PM,73.4,53.6,50,29.95,-9999.0,SSW,10.4,-,N/A,,Clear,200,2013-05-18 13:00:00
3:30 PM,69.8,50.0,49,29.95,-9999.0,SSW,12.7,-,N/A,,Clear,200,2013-05-18 13:30:00
4:00 PM,71.6,50.0,46,29.95,-9999.0,SSW,10.4,-,N/A,,Clear,210,2013-05-18 14:00:00
4:30 PM,69.8,48.2,46,29.95,-9999.0,SW,11.5,-,N/A,,Clear,220,2013-05-18 14:30:00
5:00 PM,71.6,48.2,43,29.95,-9999.0,SW,11.5,-,N/A,,Clear,230,2013-05-18 15:00:00
5:30 PM,71.6,48.2,43,29.95,-9999.0,SSW,10.4,-,N/A,,Clear,210,2013-05-18 15:30:00
6:00 PM,71.6,48.2,43,29.95,-9999.0,SSW,11.5,-,N/A,,Clear,200,2013-05-18 16:00:00
6:30 PM,69.8,48.2,46,29.95,-9999.0,SW,10.4,-,N/A,,Clear,230,2013-05-18 16:30:00
7:00 PM,71.6,48.2,43,29.95,-9999.0,SW,10.4,-,N/A,,Clear,230,2013-05-18 17:00:00
7:30 PM,69.8,48.2,46,29.95,-9999.0,SSW,6.9,-,N/A,,Clear,210,2013-05-18 17:30:00
8:00 PM,68.0,50.0,52,29.95,-9999.0,South,4.6,-,N/A,,Clear,190,2013-05-18 18:00:00
8:30 PM,68.0,50.0,52,29.95,-9999.0,South,4.6,-,N/A,,Clear,190,2013-05-18 18:30:00
9:00 PM,60.8,51.8,72,29.95,-9999.0,SE,4.6,-,N/A,,Clear,130,2013-05-18 19:00:00
9:30 PM,59.0,51.8,77,29.95,-9999.0,ESE,4.6,-,N/A,,Clear,110,2013-05-18 19:30:00
10:00 PM,59.0,51.8,77,29.95,-9999.0,Variable,3.5,-,N/A,,Clear,0,2013-05-18 20:00:00
10:30 PM,57.2,51.8,82,29.95,-9999.0,East,5.8,-,N/A,,Clear,90,2013-05-18 20:30:00
11:00 PM,55.4,51.8,88,29.95,-9999.0,ESE,4.6,-,N/A,,Clear,120,2013-05-18 21:00:00
11:30 PM,57.2,51.8,82,29.95,-9999.0,ESE,5.8,-,N/A,,Clear,110,2013-05-18 21:30:00